Orbital Elements at Epoch 2459200.5 (2020-Dec-17.0) TDB
Reference: JPL 18 (heliocentric ecliptic J2000)
Element | Value | Uncertainty (1-sigma) | Units |
e | .2116509044553629 | 3.9873e-08 | |
a | 2.304775744748467 | 1.1215e-08 | au |
q | 1.816967873805671 | 9.2028e-08 | au |
i | 6.903457501847201 | 5.8859e-06 | deg |
node | 54.34324059786428 | 3.6136e-05 | deg |
peri | 252.5945709321774 | 3.8975e-05 | deg |
M | 189.1471504218669 | 1.6019e-05 | deg |
tp | 2459807.042399385879 (2022-Aug-15.54239939) | 5.9455e-05 | TDB |
period | 1278.031149717875 3.50 | 9.3285e-06 2.554e-08 | d yr |
n | .2816832751529334 | 2.056e-09 | deg/d |
Q | 2.792583615691263 | 1.3589e-08 | au |
|
| | Orbit Determination Parameters
Additional Information
|